Flag for U.S.A. Weather past 2 weeks in Tulsa, Oklahoma, U.S.A.

Now
67 °F

Overcast.


Feels Like: 67 °F
Forecast: 63 / 73 °F
Wind: 6 mph from Southeast

Location: Tulsa International Airport

Current Time: Apr 18, 2015 at 12:42:58 AM

Latest Report: Apr 17, 2015 at 11:53 PM


Visibility: 10 mi

Pressure: 29.92 "Hg

Humidity: 85%

Dew point: 62 °F

Location of TulsaLocation

Historic Weather in Tulsa — Graph

°F

Tulsa temperature yesterday

Maximum temperature yesterday: 77 °F (at 2:53 PM)
Minimum temperature yesterday: 61 °F (at 3:53 AM)
Average temperature yesterday: 68 °F

Past Weeks' High & Low Weather Summary

 TemperatureHumidityPressure
High86 °F (Apr 7, 2:53 PM)100% (Apr 5, 9:53 PM)30.46 "Hg (Apr 5, 9:53 PM)
Low37 °F (Apr 4, 6:53 AM)18% (Apr 4, 4:53 PM)29.62 "Hg (Apr 9, 2:53 AM)
Average63 °F70%29.97 "Hg
* Reported Apr 2 10:53 PM — Apr 17 10:53 PM, Tulsa, Weather by CustomWeather, © 2015

Note: Actual official high and low records may vary slightly from our data, if they occured in-between our weather recording intervals... More about our weather records

Advertising

Tulsa weather history for previous 24 hours

 ConditionsComfort  
Time TempWeatherWind HumidityBarometerVisibility
10:53 PM
Fri, Apr 17
66 °FMostly cloudy.6 mph87%29.92 "Hg10 mi
9:53 PM71 °FMostly cloudy.3 mph73%29.91 "Hg10 mi
8:53 PM69 °FMore clouds than sun.5 mph79%29.91 "Hg10 mi
7:53 PM74 °FSunny.5 mph64%29.89 "Hg10 mi
6:53 PM75 °FMore clouds than sun.7 mph64%29.89 "Hg10 mi
5:53 PM77 °FCloudy.5 mph58%29.90 "Hg10 mi
4:53 PM77 °FCloudy.9 mph58%29.91 "Hg10 mi
3:53 PM77 °FBroken clouds.10 mph60%29.90 "Hg10 mi
2:53 PM77 °FBroken clouds.5 mph56%29.93 "Hg10 mi
1:53 PM72 °FPartly sunny.8 mph68%29.94 "Hg10 mi
12:53 PM71 °FMostly cloudy.12 mph68%29.95 "Hg10 mi
11:53 AM70 °FMore clouds than sun.7 mph68%29.99 "Hg10 mi
10:53 AM67 °FMostly cloudy.8 mph76%30.02 "Hg10 mi
9:53 AM64 °FMostly cloudy.9 mph81%30.01 "Hg10 mi
8:53 AM63 °FOvercast.12 mph87%30.01 "Hg10 mi
7:53 AM63 °FOvercast.No wind84%30.00 "Hg10 mi
6:53 AM61 °FPassing clouds.6 mph87%29.96 "Hg10 mi
5:53 AM62 °FPartly cloudy.5 mph83%29.95 "Hg10 mi
4:53 AM62 °FMostly cloudy.No wind83%29.95 "Hg10 mi
3:53 AM61 °FOvercast.3 mph87%29.95 "Hg10 mi
2:53 AM64 °FOvercast.No wind75%29.94 "Hg10 mi
1:53 AM65 °FHigh level clouds.No wind73%29.94 "Hg10 mi
12:53 AM64 °FHigh level clouds.5 mph78%29.93 "Hg10 mi
Weather by CustomWeather, © 2015

See weather overviewHow to use our weather pages